TimeCST,TemperatureF,Dew PointF,Humidity,Sea Level PressureIn,VisibilityMPH,Wind Direction,Wind SpeedMPH,Gust SpeedMPH,PrecipitationIn,Events,Conditions,WindDirDegrees,DateUTC
12:15 AM,24.8,19.4,80,29.87,2.0,East,9.2,-,N/A,Snow,Light Snow,90,2013-02-22 06:15:00
12:35 AM,24.8,19.4,80,29.86,2.5,East,9.2,-,N/A,Snow,Light Snow,90,2013-02-22 06:35:00
12:55 AM,24.8,19.4,80,29.85,4.0,East,8.1,-,N/A,Snow,Light Snow,90,2013-02-22 06:55:00
1:15 AM,24.8,19.4,80,29.85,10.0,East,6.9,-,N/A,,Overcast,90,2013-02-22 07:15:00
1:35 AM,26.6,19.4,74,29.83,10.0,East,11.5,-,N/A,,Overcast,80,2013-02-22 07:35:00
1:55 AM,26.6,19.4,74,29.83,10.0,ESE,5.8,-,N/A,,Overcast,110,2013-02-22 07:55:00
2:15 AM,26.6,19.4,74,29.83,10.0,ESE,6.9,-,N/A,,Overcast,110,2013-02-22 08:15:00
2:35 AM,26.6,19.4,74,29.82,10.0,East,12.7,-,N/A,,Overcast,90,2013-02-22 08:35:00
2:55 AM,26.6,19.4,74,29.80,10.0,East,8.1,-,N/A,,Overcast,90,2013-02-22 08:55:00
3:15 AM,26.6,19.4,74,29.80,10.0,East,9.2,-,N/A,,Overcast,100,2013-02-22 09:15:00
3:35 AM,26.6,21.2,80,29.79,7.0,East,8.1,-,N/A,,Overcast,100,2013-02-22 09:35:00
3:55 AM,26.6,21.2,80,29.78,7.0,East,8.1,-,N/A,,Overcast,100,2013-02-22 09:55:00
4:15 AM,26.6,21.2,80,29.78,7.0,East,9.2,-,N/A,,Overcast,90,2013-02-22 10:15:00
4:35 AM,26.6,21.2,80,29.77,5.0,East,4.6,-,N/A,,Overcast,90,2013-02-22 10:35:00
4:55 AM,26.6,21.2,80,29.77,2.0,East,5.8,-,N/A,Snow,Light Snow,80,2013-02-22 10:55:00
5:15 AM,26.6,21.2,80,29.77,2.0,Calm,Calm,-,N/A,Snow,Light Snow,0,2013-02-22 11:15:00
5:35 AM,26.6,21.2,80,29.77,3.0,East,4.6,-,N/A,,Overcast,90,2013-02-22 11:35:00
5:55 AM,26.6,21.2,80,29.76,2.0,East,3.5,-,N/A,Snow,Light Snow,90,2013-02-22 11:55:00
6:15 AM,26.6,21.2,80,29.77,2.0,Calm,Calm,-,N/A,Snow,Light Snow,0,2013-02-22 12:15:00
6:35 AM,26.6,21.2,80,29.77,1.8,Calm,Calm,-,N/A,Snow,Light Snow,0,2013-02-22 12:35:00
6:55 AM,26.6,23.0,86,29.77,2.0,Calm,Calm,-,N/A,Snow,Light Snow,0,2013-02-22 12:55:00
7:15 AM,26.6,23.0,86,29.78,2.5,Calm,Calm,-,N/A,Snow,Light Snow,0,2013-02-22 13:15:00
7:35 AM,26.6,23.0,86,29.78,1.8,Calm,Calm,-,N/A,Snow,Light Snow,0,2013-02-22 13:35:00
7:55 AM,26.6,23.0,86,29.78,1.8,Calm,Calm,-,N/A,Snow,Light Snow,0,2013-02-22 13:55:00
8:15 AM,26.6,23.0,86,29.79,2.0,Calm,Calm,-,N/A,,Overcast,0,2013-02-22 14:15:00
8:35 AM,26.6,23.0,86,29.79,2.5,Calm,Calm,-,N/A,Snow,Light Snow,0,2013-02-22 14:35:00
8:55 AM,28.4,23.0,80,29.80,2.5,Calm,Calm,-,N/A,Snow,Light Snow,0,2013-02-22 14:55:00
9:15 AM,28.4,23.0,80,29.81,3.0,Calm,Calm,-,N/A,Snow,Light Snow,0,2013-02-22 15:15:00
9:35 AM,28.4,24.8,86,29.81,4.0,SW,6.9,-,N/A,Snow,Light Snow,230,2013-02-22 15:35:00
9:55 AM,30.2,24.8,80,29.81,5.0,WSW,5.8,-,N/A,Snow,Light Snow,250,2013-02-22 15:55:00
10:15 AM,30.2,24.8,80,29.81,5.0,WSW,9.2,-,0.01,Snow,Light Snow,250,2013-02-22 16:15:00
10:35 AM,30.2,24.8,80,29.82,7.0,WSW,12.7,-,0.03,,Overcast,240,2013-02-22 16:35:00
10:55 AM,30.2,24.8,80,29.83,10.0,WSW,10.4,-,0.04,,Overcast,250,2013-02-22 16:55:00
11:15 AM,30.2,23.0,75,29.83,10.0,WSW,11.5,-,N/A,,Overcast,250,2013-02-22 17:15:00
11:35 AM,30.2,23.0,75,29.84,10.0,WSW,12.7,-,0.03,,Overcast,240,2013-02-22 17:35:00
11:55 AM,30.2,23.0,75,29.85,10.0,WSW,15.0,-,0.05,,Overcast,250,2013-02-22 17:55:00
12:15 PM,30.2,21.2,69,29.84,10.0,West,13.8,-,0.01,,Overcast,270,2013-02-22 18:15:00
12:35 PM,30.2,21.2,69,29.85,7.0,West,17.3,-,0.01,,Overcast,260,2013-02-22 18:35:00
12:55 PM,30.2,21.2,69,29.85,10.0,West,17.3,-,0.01,,Overcast,260,2013-02-22 18:55:00
1:15 PM,30.2,21.2,69,29.86,10.0,WSW,16.1,-,N/A,,Overcast,250,2013-02-22 19:15:00
1:35 PM,30.2,21.2,69,29.86,10.0,WSW,17.3,-,N/A,,Overcast,250,2013-02-22 19:35:00
1:55 PM,30.2,21.2,69,29.86,10.0,WSW,13.8,18.4,0.01,,Overcast,250,2013-02-22 19:55:00
2:15 PM,30.2,19.4,64,29.87,10.0,WSW,17.3,20.7,N/A,,Overcast,250,2013-02-22 20:15:00
2:35 PM,30.2,19.4,64,29.88,10.0,WSW,12.7,-,N/A,,Overcast,250,2013-02-22 20:35:00
2:55 PM,30.2,19.4,64,29.88,10.0,West,16.1,-,N/A,,Overcast,260,2013-02-22 20:55:00
3:15 PM,30.2,19.4,64,29.89,10.0,WSW,15.0,-,N/A,,Overcast,250,2013-02-22 21:15:00
3:35 PM,30.2,19.4,64,29.89,10.0,West,12.7,-,N/A,,Overcast,260,2013-02-22 21:35:00
3:55 PM,30.2,19.4,64,29.89,10.0,West,11.5,-,N/A,,Overcast,260,2013-02-22 21:55:00
4:15 PM,28.4,19.4,69,29.90,10.0,West,15.0,18.4,N/A,,Overcast,260,2013-02-22 22:15:00
4:35 PM,30.2,19.4,64,29.90,10.0,West,13.8,-,N/A,,Overcast,260,2013-02-22 22:35:00
4:55 PM,28.4,19.4,69,29.91,10.0,West,12.7,-,N/A,,Overcast,260,2013-02-22 22:55:00
5:15 PM,28.4,19.4,69,29.91,10.0,West,12.7,-,N/A,,Overcast,270,2013-02-22 23:15:00
5:35 PM,28.4,19.4,69,29.92,10.0,West,16.1,-,N/A,,Overcast,280,2013-02-22 23:35:00
5:55 PM,28.4,19.4,69,29.93,10.0,West,15.0,-,N/A,,Overcast,270,2013-02-22 23:55:00
6:15 PM,28.4,19.4,69,29.93,10.0,West,16.1,-,N/A,,Overcast,270,2013-02-23 00:15:00
6:35 PM,28.4,19.4,69,29.94,10.0,West,17.3,20.7,N/A,,Overcast,260,2013-02-23 00:35:00
6:55 PM,26.6,19.4,74,29.94,10.0,West,16.1,-,N/A,,Overcast,280,2013-02-23 00:55:00
7:15 PM,26.6,19.4,74,29.96,10.0,West,12.7,-,N/A,,Overcast,260,2013-02-23 01:15:00
7:35 PM,26.6,17.6,69,29.96,10.0,West,11.5,-,N/A,,Overcast,260,2013-02-23 01:35:00
7:55 PM,26.6,17.6,69,29.96,10.0,West,13.8,17.3,N/A,,Overcast,260,2013-02-23 01:55:00
8:15 PM,24.8,17.6,74,29.97,10.0,West,12.7,-,N/A,,Overcast,260,2013-02-23 02:15:00
8:35 PM,24.8,17.6,74,29.97,10.0,West,13.8,-,N/A,,Overcast,260,2013-02-23 02:35:00
8:55 PM,24.8,17.6,74,29.97,10.0,West,12.7,-,N/A,,Overcast,260,2013-02-23 02:55:00
9:15 PM,24.8,17.6,74,29.98,10.0,West,12.7,-,N/A,,Overcast,270,2013-02-23 03:15:00
9:35 PM,24.8,17.6,74,29.98,10.0,West,12.7,-,N/A,,Overcast,260,2013-02-23 03:35:00
9:55 PM,24.8,15.8,69,29.98,10.0,West,13.8,-,N/A,,Overcast,260,2013-02-23 03:55:00
10:15 PM,24.8,15.8,69,29.98,10.0,West,11.5,-,N/A,,Overcast,260,2013-02-23 04:15:00
10:35 PM,24.8,15.8,69,29.98,10.0,West,10.4,-,N/A,,Overcast,260,2013-02-23 04:35:00
10:55 PM,24.8,15.8,69,29.98,10.0,West,12.7,-,N/A,,Overcast,260,2013-02-23 04:55:00
11:15 PM,24.8,15.8,69,29.97,10.0,West,11.5,-,N/A,,Overcast,260,2013-02-23 05:15:00
11:35 PM,24.8,15.8,69,29.97,10.0,WSW,11.5,-,N/A,,Overcast,250,2013-02-23 05:35:00
11:55 PM,24.8,15.8,69,29.97,10.0,West,11.5,-,N/A,,Overcast,260,2013-02-23 05:55:00